Location: Unspecified
(50.7693°N, 0.0000°E)
Time: 07:09:43
(UTC+00:00)

Transit 2A - Pass Details

Date: 20 August 2020
Orbit: 591 x 967 km, 66.7° (Epoch: 20 September)

Event Time Altitude Azimuth Distance (km) Brightness Sun altitude
Rises 20:14:21 0° 266° (W) 3,545 10.4 -10.0°
Reaches altitude 10° 20:17:16 10° 279° (W) 2,647 9.9 -10.3°
Maximum altitude 20:22:26 26° 335° (NNW) 1,786 8.7 -11.0°
Drops below altitude 10° 20:27:45 10° 31° (NNE) 2,717 8.9 -11.7°
Sets 20:30:48 0° 44° (NE) 3,657 9.4 -12.1°
